Dewpoint
56 56 55 53 53 53 52 52 52 52 52 51 51 52 51 51 51 51 51 51 51 51 50 50 51 51 51 52 53 52 51 51 50 50 50 51 52 53 53 53 54 53 52 51 50 50 50 49 49 48 46 43
55 55 55 55 54 53 52 53 51 51 52 51 51 51 51 52 51 50 50 51 51 51 51 50 51 51 52 52 52 52 51 50 50 50 50 50 51 51 52 52 52 52 51 50 50 49 49 49 48 48 46 42
53 54 54 54 55 54 53 52 52 52 51 52 52 52 53 53 52 51 51 51 50 50 50 50 51 51 52 52 51 51 50 50 50 50 50 50 50 50 50 50 51 51 50 49 49 49 48 48 47 46 44 41
49 52 53 54 54 54 54 53 53 53 53 53 52 52 52 52 50 51 50 50 49 49 50 50 51 51 50 51 51 50 49 49 49 49 49 49 49 48 48 49 49 50 50 49 48 48 47 46 45 40 40 40
47 49 52 52 53 53 53 53 53 53 53 52 51 51 50 47 42 42 43 44 45 50 46 51 51 51 49 49 49 49 48 47 47 47 47 47 47 47 46 46 47 47 48 47 47 46 45 43 38 39 39 40
46 47 48 46 47 48 50 52 52 49 47 48 47 49 43 41 41 40 40 41 46 43 45 47 51 50 48 49 49 49 48 47 47 45 43 42 43 42 41 42 35 43 46 45 45 45 43 37 37 38 38 39
45 44 44 43 44 46 49 48 46 45 45 44 43 41 40 39 38 38 38 39 41 43 49 46 50 50 49 49 48 47 46 45 44 43 42 41 39 38 39 30 29 31 35 39 44 43 37 36 36 37 38 38
44 43 43 42 42 43 43 43 43 43 43 42 40 39 37 35 37 37 37 44 44 44 39 43 49 48 48 47 47 48 48 45 42 42 41 41 41 41 36 27 26 26 27 31 32 34 35 35 36 36 36 36
42 42 41 41 40 40 40 40 40 40 40 39 38 36 34 34 36 36 36 36 34 33 33 33 32 31 31 32 34 38 30 32 33 29 26 28 31 29 30 27 26 27 27 29 31 33 34 34 35 35 35 35
42 41 40 39 38 39 38 38 37 37 37 37 36 33 33 36 35 36 34 33 31 30 30 30 29 29 30 29 31 36 30 29 28 27 27 27 27 27 27 27 27 28 29 27 29 32 33 33 33 34 33 34
41 40 39 38 36 37 36 35 35 34 35 35 33 31 33 33 33 33 32 30 29 28 28 28 30 30 30 28 27 32 28 27 28 26 26 26 27 27 26 27 28 28 28 28 28 31 33 32 32 32 33 33
41 38 37 35 38 36 37 34 33 33 33 33 32 30 31 32 30 30 29 28 28 25 27 29 29 29 29 28 28 31 27 26 26 25 25 26 26 26 26 26 26 27 28 28 28 30 32 32 31 30 31 32
40 36 36 35 34 32 37 31 31 32 32 31 32 30 30 31 27 26 26 26 27 27 27 28 28 28 28 28 25 28 27 25 25 24 25 26 25 25 25 25 25 26 26 27 26 28 31 32 31 30 30 30
38 35 34 33 32 30 35 30 28 30 30 30 31 29 28 28 25 24 24 26 28 28 27 27 27 27 27 25 25 26 24 27 24 23 25 24 24 25 24 24 25 26 24 25 26 27 29 31 31 31 31 31
35 33 32 31 29 27 29 28 28 29 29 29 29 28 29 28 27 24 25 27 28 27 27 27 26 25 26 24 25 26 24 27 24 25 24 24 23 24 24 23 27 24 24 24 26 27 27 29 31 32 33 32
32 30 30 29 26 25 27 28 26 27 28 30 28 29 28 28 28 29 27 27 28 27 27 25 26 25 25 23 25 26 24 25 26 25 26 25 24 24 23 23 25 24 23 23 24 26 26 27 28 30 32 33
30 28 28 27 25 24 29 26 26 25 26 27 27 28 28 28 29 31 27 27 28 32 26 25 26 25 27 24 24 26 25 26 26 26 25 24 26 23 22 22 22 26 23 22 22 24 23 25 27 29 31 32
28 27 26 26 24 26 27 25 25 26 25 27 27 28 28 28 29 30 27 27 27 29 26 26 25 25 25 24 25 26 26 24 25 24 23 22 23 28 22 20 21 23 21 22 22 23 23 22 25 28 27 29
26 25 25 25 23 25 26 24 24 25 25 25 25 26 27 28 29 30 27 27 27 27 26 25 25 25 24 24 26 25 25 23 23 23 23 25 22 22 22 20 23 21 20 21 21 21 23 20 22 25 27 26
24 23 24 24 26 24 26 25 24 24 24 25 25 27 25 27 28 29 27 27 27 26 25 25 24 24 24 25 26 25 25 24 23 23 24 25 23 20 20 22 19 23 19 20 20 20 23 21 25 21 25 26
22 23 24 23 24 25 25 25 24 24 24 25 25 26 25 27 28 29 28 27 27 25 25 25 24 24 25 26 25 24 25 24 25 24 24 23 25 21 20 22 19 19 21 21 21 20 21 21 24 20 23 25
21 23 24 24 24 27 24 24 24 24 24 24 25 26 25 26 28 29 27 27 27 25 25 25 24 24 25 25 24 24 24 24 24 24 24 22 23 21 20 21 19 19 20 22 21 19 19 20 23 20 21 25
23 24 24 23 24 25 24 24 24 24 24 24 25 26 26 27 27 29 27 27 27 25 26 25 25 24 25 24 23 23 23 23 24 23 23 22 20 24 21 20 20 19 21 22 21 20 20 21 21 21 21 25
23 24 25 23 24 24 25 23 24 23 23 23 24 26 27 27 27 27 27 27 27 25 26 25 25 24 24 24 23 22 22 21 22 22 22 21 19 19 22 24 22 21 22 20 20 22 23 23 24 23 24 23
21 22 23 22 22 22 22 22 22 23 23 23 23 25 26 27 27 27 27 27 26 25 27 25 24 24 24 23 23 22 21 21 21 22 22 23 23 19 19 19 21 21 20 17 16 18 19 20 22 27 26 22
20 21 22 21 21 22 23 23 23 21 21 22 25 25 26 27 27 27 26 27 26 25 25 24 24 24 24 23 23 22 23 21 25 24 22 23 22 22 19 19 20 21 18 15 16 14 15 20 19 21 23 23
19 19 21 21 21 22 23 22 22 21 23 23 23 23 25 27 27 26 26 26 27 25 24 23 23 23 23 23 23 23 22 22 22 22 21 21 22 20 21 20 23 20 19 18 18 17 12 13 11 17 22 21
19 19 19 20 20 21 22 21 23 21 22 22 22 22 24 26 26 26 26 26 26 26 24 23 23 23 23 23 23 22 21 22 21 22 21 21 22 21 18 18 21 22 20 20 19 10 15 14 12 8 10 18
20 21 19 20 20 22 19 20 20 18 19 20 21 21 22 24 26 25 26 26 26 26 24 24 23 23 23 22 22 23 22 21 22 22 21 21 21 22 21 21 18 21 21 17 20 18 10 6 7 14 17 16
20 20 18 18 19 18 20 18 18 19 18 18 19 19 20 23 25 25 25 26 26 25 25 24 23 23 23 22 23 23 22 21 21 21 21 21 21 21 21 21 19 18 20 22 22 20 18 19 15 12 16 13
21 20 16 16 16 16 17 17 19 18 18 19 20 21 20 21 24 25 24 25 25 25 25 24 23 23 23 24 23 24 21 21 21 22 22 22 21 21 23 20 20 20 21 19 22 22 23 21 19 17 18 14